Flight Track Log - Related Links

Times and Time Zones

All times are in EST time to prevent confusion due to time zone crossing. See the EJA829P flight status page for this flight to view local times or setup timezone preferences in your user account.

Time Position Orientation Groundspeed Altitude Reporting Facility
EST Latitude Longitude Course Direction KTS MPH feet Rate Location/Type
Fri 07:54:04 AM 40.0025 -82.9072 275° West 144 166 1,400  Level Indianapolis Center
Fri 07:54:44 AM 40.0050 -82.9467 275° West 178 205 3,800 4,250 Climbing Indianapolis Center
Fri 07:54:52 AM 40.0053 -82.9650 271° West 182 209 4,800 3,581 Climbing Indianapolis Center
Fri 07:55:46 AM 39.9664 -82.9872 204° Southwest 262 302 7,500 3,913 Climbing Indianapolis Center
Fri 07:56:47 AM 39.8858 -82.9317 152° Southeast 328 377 12,300 3,659 Climbing Indianapolis Center
Fri 07:57:49 AM 39.7931 -82.8650 151° Southeast 375 432 15,000 2,274 Climbing Indianapolis Center
Fri 07:58:51 AM 39.6756 -82.8467 173° South 371 427 17,000 968 Climbing Indianapolis Center
Fri 07:59:53 AM 39.5892 -82.9131 211° Southwest 361 415 17,000  Level Indianapolis Center
Fri 08:00:55 AM 39.5011 -82.9797 210° Southwest 364 419 17,000  Level Indianapolis Center
Fri 08:01:56 AM 39.4114 -83.0481 210° Southwest 370 426 17,000  Level Indianapolis Center
Fri 08:02:58 AM 39.3211 -83.1150 210° Southwest 372 428 17,000  Level Indianapolis Center
Fri 08:04:00 AM 39.2325 -83.1842 211° Southwest 372 428 17,000 48 Level Indianapolis Center
Fri 08:05:02 AM 39.1439 -83.2508 210° Southwest 371 427 17,100 49 Climbing Indianapolis Center
Fri 08:06:03 AM 39.0556 -83.3172 210° Southwest 368 423 17,100 -98 Level Indianapolis Center
Fri 08:07:05 AM 38.9669 -83.3833 210° Southwest 368 423 16,900 -194 Descending Indianapolis Center
Fri 08:08:07 AM 38.8614 -83.4625 210° Southwest 366 421 16,700 -195 Descending Indianapolis Center
Fri 08:09:08 AM 38.7744 -83.5264 210° Southwest 362 417 16,500 -585 Descending Indianapolis Center
Fri 08:10:10 AM 38.6889 -83.5897 210° Southwest 357 411 15,500 -968 Descending Indianapolis Center
Fri 08:11:12 AM 38.5994 -83.6567 210° Southwest 361 415 14,500 -919 Descending Indianapolis Center
Fri 08:12:14 AM 38.5150 -83.7197 210° Southwest 355 409 13,600 -878 Descending Indianapolis Center
Fri 08:13:15 AM 38.4292 -83.7822 210° Southwest 355 409 12,700 -976 Descending Indianapolis Center
Fri 08:14:17 AM 38.3344 -83.8511 210° Southwest 340 391 11,600 -823 Descending Indianapolis Center
Fri 08:15:19 AM 38.2811 -83.9322 230° Southwest 302 348 11,000 -829 Descending Indianapolis Center
Fri 08:16:20 AM 38.2553 -84.0275 251° West 284 327 9,900 -1,317 Descending Indianapolis Center
Fri 08:17:22 AM 38.2325 -84.1119 251° West 259 298 8,300 -1,548 Descending Indianapolis Center
Fri 08:18:24 AM 38.2086 -84.1983 251° West 258 297 6,700 -1,548 Descending Indianapolis Center
Fri 08:19:26 AM 38.1853 -84.2831 251° West 257 296 5,100 -1,512 Descending Indianapolis Center
Fri 08:20:27 AM 38.1631 -84.3669 251° West 254 292 3,600 -1,024 Descending Indianapolis Center
Fri 08:21:29 AM 38.1375 -84.4594 251° West 247 284 3,000 -339 Descending Indianapolis Center
Fri 08:22:31 AM 38.1153 -84.5153 243° Southwest 221 254 2,900 -390 Descending Indianapolis Center
Fri 08:23:32 AM 38.0894 -84.5483 225° Southwest 162 186 2,200 -634 Descending Indianapolis Center
Fri 08:24:34 AM 38.0656 -84.5742 220° Southwest 132 152 1,600 -532 Descending Indianapolis Center
Fri 08:25:36 AM 38.0397 -84.6014 220° Southwest 123 142 1,100 -484 Descending Indianapolis Center
Fri 08:27:00 AM 38.0333 -84.6000 247° West  Level FlightAware Approximate

Login

Don't have an account? Register now (free) for customized features, flight alerts, and more!